S57D-6 Weather Reports


Display with metric or nautical units.
time (UTC)temp
F
wind
direction
speed
MPH
gust
MPH
rain 1hr
in
rain 24hr
in
rain mn
in
humidity
%
barometer
mb
20181114211422 43 45 0.0 0.0 0.00 0.00 0.00 91 1028.5
20181114210421 44 0 0.0 0.0 0.00 0.00 0.00 91 1028.5
20181114205421 44 0 0.0 0.0 0.00 0.00 0.00 91 1028.5
20181114204424 44 67 0.0 0.0 0.00 0.00 0.00 91 1028.5
20181114203921 44 67 0.0 0.0 0.00 0.00 0.00 91 1028.5
20181114203419 45 45 0.0 0.0 0.00 0.00 0.00 91 1028.4
20181114202419 45 135 0.0 0.0 0.00 0.00 0.00 91 1028.4
20181114201920 45 135 0.0 0.0 0.00 0.00 0.00 91 1028.4
20181114201418 45 90 0.0 0.0 0.00 0.00 0.00 91 1028.4
20181114200919 45 112 0.0 0.0 0.00 0.00 0.00 91 1028.4
20181114200418 45 0 0.0 0.0 0.00 0.00 0.00 91 1028.3
20181114195417 44 22 0.0 0.0 0.00 0.00 0.00 91 1028.2
20181114194918 44 22 0.0 0.0 0.00 0.00 0.00 91 1028.3
20181114194417 44 0 0.0 0.0 0.00 0.00 0.00 91 1028.3
20181114193416 44 22 0.0 0.0 0.00 0.00 0.00 91 1028.2
20181114192415 43 0 0.0 1.0 0.00 0.00 0.00 91 1028.3
20181114191415 42 0 0.0 0.0 0.00 0.00 0.00 91 1028.2
20181114190414 42 22 0.0 0.0 0.00 0.00 0.00 90 1028.1
20181114185414 42 0 0.0 0.0 0.00 0.00 0.00 90 1028.1
20181114184413 42 0 0.0 0.0 0.00 0.00 0.00 89 1028.0
20181114183914 42 0 0.0 0.0 0.00 0.00 0.00 89 1028.0
20181114183516 42 0 0.0 0.0 0.00 0.00 0.00 89 1027.9
20181114183413 42 0 0.0 0.0 0.00 0.00 0.00 89 1027.9
20181114182412 43 0 0.0 0.0 0.00 0.00 0.00 89 1027.9
20181114181913 43 0 0.0 0.0 0.00 0.00 0.00 89 1027.9
20181114181412 43 0 0.0 0.0 0.00 0.00 0.00 89 1027.9
20181114180411 43 0 0.0 0.0 0.00 0.00 0.00 89 1027.8
20181114175912 43 0 0.0 0.0 0.00 0.00 0.00 89 1027.8
20181114175410 44 0 0.0 0.0 0.00 0.00 0.00 89 1027.8
20181114174410 44 0 0.0 0.0 0.00 0.00 0.00 88 1027.8
20181114173409 44 0 0.0 0.0 0.00 0.00 0.00 88 1027.8
20181114172946 44 0 0.0 0.0 0.00 0.00 0.00 88 1027.8
20181114172911 44 0 0.0 0.0 0.00 0.00 0.00 88 1027.8
20181114172409 44 0 0.0 0.0 0.00 0.00 0.00 88 1027.8
20181114171408 45 0 0.0 0.0 0.00 0.00 0.00 87 1027.7
20181114170408 46 22 0.0 0.0 0.00 0.00 0.00 87 1027.6
20181114165407 46 22 0.0 0.0 0.00 0.00 0.00 86 1027.7
20181114164908 47 22 0.0 0.0 0.00 0.00 0.00 86 1027.5
20181114164406 47 22 0.0 0.0 0.00 0.00 0.00 86 1027.6
20181114163952 47 22 0.0 0.0 0.00 0.00 0.00 86 1027.5
20181114163907 47 22 0.0 0.0 0.00 0.00 0.00 86 1027.5
20181114163406 47 22 0.0 0.0 0.00 0.00 0.00 85 1027.6
20181114162510 48 22 0.0 0.0 0.00 0.00 0.00 85 1027.6
20181114162405 48 22 0.0 0.0 0.00 0.00 0.00 85 1027.6
20181114161405 48 22 0.0 0.0 0.00 0.00 0.00 84 1027.6
20181114160404 48 0 0.0 0.0 0.00 0.00 0.00 84 1027.5
20181114155404 49 22 0.0 0.0 0.00 0.00 0.00 83 1027.3
20181114154904 49 22 0.0 0.0 0.00 0.00 0.00 83 1027.5
20181114154403 50 22 0.0 0.0 0.00 0.00 0.00 83 1027.4
20181114153403 50 22 0.0 0.0 0.00 0.00 0.00 82 1027.3
20181114152402 51 22 0.0 0.0 0.00 0.00 0.00 82 1027.3
20181114151903 51 22 0.0 0.0 0.00 0.00 0.00 81 1027.4
20181114151401 52 22 0.0 0.0 0.00 0.00 0.00 81 1027.5
20181114150506 52 22 0.0 0.0 0.00 0.00 0.00 80 1027.7
20181114150401 52 22 0.0 0.0 0.00 0.00 0.00 80 1027.7
20181114145400 53 0 0.0 0.0 0.00 0.00 0.00 78 1027.8
20181114144401 53 0 0.0 1.0 0.00 0.00 0.00 78 1027.8
20181114143900 53 0 1.0 1.0 0.00 0.00 0.00 78 1027.9
20181114143359 54 0 0.0 0.0 0.00 0.00 0.00 77 1027.8
20181114142358 54 45 2.0 2.0 0.00 0.00 0.00 77 1027.8
20181114141859 55 337 2.0 2.0 0.00 0.00 0.00 76 1027.9
20181114141358 55 67 1.0 1.0 0.00 0.00 0.00 76 1027.9
20181114140513 55 315 0.0 0.0 0.00 0.00 0.00 75 1027.9
20181114140357 55 315 0.0 0.0 0.00 0.00 0.00 75 1027.9
20181114135858 56 22 0.0 2.0 0.00 0.00 0.00 75 1028.0
20181114135357 56 0 0.0 3.0 0.00 0.00 0.00 75 1028.0
20181114134356 57 67 0.0 4.0 0.00 0.00 0.00 74 1028.0
20181114133857 57 0 4.0 4.0 0.00 0.00 0.00 74 1028.0
20181114133356 57 337 2.0 2.0 0.00 0.00 0.00 74 1027.9
20181114132856 57 22 2.0 2.0 0.00 0.00 0.00 75 1028.1
20181114132355 57 0 0.0 2.0 0.00 0.00 0.00 76 1028.0
20181114131354 57 22 3.0 3.0 0.00 0.00 0.00 76 1028.2
20181114130855 56 337 0.0 3.0 0.00 0.00 0.00 77 1028.2
20181114130354 56 90 3.0 4.0 0.00 0.00 0.00 78 1028.1
20181114125353 55 270 1.0 2.0 0.00 0.00 0.00 80 1028.2
20181114124353 54 45 0.0 2.0 0.00 0.00 0.00 81 1028.4
20181114123853 54 337 1.0 1.0 0.00 0.00 0.00 81 1028.4
20181114123644 53 22 0.0 2.0 0.00 0.00 0.00 82 1028.6
20181114123424 53 22 0.0 2.0 0.00 0.00 0.00 82 1028.6
20181114123352 53 22 0.0 2.0 0.00 0.00 0.00 82 1028.6
20181114122352 53 45 0.0 1.0 0.00 0.00 0.00 82 1028.7
20181114122135 53 45 0.0 2.0 0.00 0.00 0.00 82 1028.7
20181114121351 53 45 0.0 2.0 0.00 0.00 0.00 82 1028.7
20181114120350 53 0 0.0 1.0 0.00 0.00 0.00 83 1029.0
20181114115350 53 45 1.0 2.0 0.00 0.00 0.00 83 1029.1
20181114114349 52 22 1.0 2.0 0.00 0.00 0.00 84 1029.3
20181114113930 52 22 2.0 2.0 0.00 0.00 0.00 84 1029.3
20181114113850 52 22 2.0 2.0 0.00 0.00 0.00 84 1029.3
20181114113349 52 0 0.0 2.0 0.00 0.00 0.00 84 1029.4
20181114112539 52 22 0.0 0.0 0.00 0.00 0.00 85 1029.6
20181114112348 52 22 0.0 0.0 0.00 0.00 0.00 85 1029.6
20181114112037 52 67 0.0 0.0 0.00 0.00 0.00 85 1029.6
20181114111849 52 67 0.0 0.0 0.00 0.00 0.00 85 1029.6
20181114111348 52 0 0.0 0.0 0.00 0.00 0.00 86 1029.7
20181114110848 52 0 0.0 0.0 0.00 0.00 0.00 86 1029.7
20181114110347 52 22 0.0 1.0 0.00 0.00 0.00 86 1029.8
20181114105848 52 22 1.0 1.0 0.00 0.00 0.00 86 1029.8
20181114105346 52 0 0.0 1.0 0.00 0.00 0.00 86 1029.8
20181114104930 52 0 1.0 1.0 0.00 0.00 0.00 86 1029.9
20181114104847 52 0 1.0 1.0 0.00 0.00 0.00 86 1029.9
20181114104346 52 0 0.0 0.0 0.00 0.00 0.00 86 1030.0
20181114103849 52 0 0.0 1.0 0.00 0.00 0.00 86 1029.9
20181114103345 52 45 1.0 1.0 0.00 0.00 0.00 86 1030.1
20181114102345 52 22 0.0 0.0 0.00 0.00 0.00 87 1030.2
20181114101344 52 0 0.0 0.0 0.00 0.00 0.00 87 1030.3
20181114100344 52 22 0.0 0.0 0.00 0.00 0.00 87 1030.5
20181114095844 52 22 0.0 0.0 0.00 0.00 0.00 87 1030.5
20181114095747 51 0 0.0 0.0 0.00 0.00 0.00 87 1030.4
20181114095343 51 0 0.0 0.0 0.00 0.00 0.00 87 1030.4
20181114094342 51 135 0.0 0.0 0.00 0.00 0.00 88 1030.5
20181114093342 51 337 0.0 0.0 0.00 0.00 0.00 89 1030.5
20181114092341 51 337 0.0 1.0 0.00 0.00 0.00 89 1030.6
20181114091341 51 0 0.0 0.0 0.00 0.00 0.00 90 1030.6
20181114090340 51 112 0.0 1.0 0.00 0.00 0.00 90 1030.6
20181114085841 51 22 1.0 1.0 0.00 0.00 0.00 91 1030.6
20181114085443 51 45 0.0 0.0 0.00 0.00 0.00 91 1030.6
20181114085340 51 45 0.0 0.0 0.00 0.00 0.00 91 1030.6
20181114084340 51 0 0.0 0.0 0.00 0.00 0.00 91 1030.5
20181114083436 50 0 0.0 0.0 0.00 0.00 0.00 91 1030.5
20181114083339 50 0 0.0 0.0 0.00 0.00 0.00 91 1030.5
20181114082925 50 0 0.0 1.0 0.00 0.00 0.00 91 1030.4
20181114082839 50 0 0.0 1.0 0.00 0.00 0.00 91 1030.4
20181114082338 50 0 1.0 1.0 0.00 0.00 0.00 91 1030.3
20181114081337 50 0 0.0 0.0 0.00 0.00 0.00 91 1030.6
20181114080337 50 0 0.0 0.0 0.00 0.00 0.00 92 1030.5
20181114075336 50 0 0.0 0.0 0.00 0.00 0.00 92 1030.3
20181114074336 50 90 0.0 0.0 0.00 0.00 0.00 92 1030.2
20181114073836 49 0 0.0 0.0 0.00 0.00 0.00 92 1030.3
20181114073335 49 0 0.0 0.0 0.00 0.00 0.00 92 1030.2
20181114072335 49 0 0.0 0.0 0.00 0.00 0.00 92 1030.4
20181114071334 49 22 1.0 1.0 0.00 0.00 0.00 93 1030.3
20181114070333 48 22 0.0 1.0 0.00 0.00 0.00 93 1030.4
20181114065333 48 22 0.0 0.0 0.00 0.00 0.00 93 1030.3
20181114064332 48 0 0.0 0.0 0.00 0.00 0.00 93 1030.2
20181114063332 48 22 0.0 0.0 0.00 0.00 0.00 93 1030.0
20181114062331 48 0 0.0 0.0 0.00 0.00 0.00 93 1029.7
20181114061331 47 0 0.0 0.0 0.00 0.00 0.00 93 1029.6
20181114060330 47 0 0.0 0.0 0.00 0.00 0.00 93 1029.5
20181114055329 47 337 0.0 0.0 0.00 0.00 0.00 93 1029.5
20181114054329 48 0 0.0 0.0 0.00 0.00 0.00 93 1029.5
20181114053328 48 112 0.0 0.0 0.00 0.00 0.00 93 1029.4
20181114052328 48 135 0.0 0.0 0.00 0.00 0.00 93 1029.5
20181114051327 48 45 0.0 0.0 0.00 0.00 0.00 93 1029.4
20181114050327 48 0 0.0 0.0 0.00 0.00 0.00 93 1029.2
20181114045827 48 22 0.0 0.0 0.00 0.00 0.00 93 1029.2
20181114045326 48 0 0.0 2.0 0.00 0.00 0.00 93 1029.2
20181114044827 48 0 2.0 2.0 0.00 0.00 0.00 93 1029.2
20181114044325 48 0 0.0 0.0 0.00 0.00 0.00 93 1029.2
20181114043325 48 22 0.0 0.0 0.00 0.00 0.00 93 1029.1
20181114042830 48 0 0.0 0.0 0.00 0.00 0.00 93 1028.9
20181114042324 48 0 0.0 0.0 0.00 0.00 0.00 93 1028.8
20181114041324 48 0 0.0 0.0 0.00 0.00 0.00 93 1028.8
20181114040826 48 0 0.0 1.0 0.00 0.00 0.00 93 1028.7
20181114040323 48 0 1.0 1.0 0.00 0.00 0.00 93 1028.8
20181114035824 48 292 0.0 0.0 0.00 0.00 0.00 93 1028.8
20181114035403 48 0 0.0 0.0 0.00 0.00 0.00 93 1028.9
20181114035323 48 0 0.0 0.0 0.00 0.00 0.00 93 1028.9
20181114034322 48 337 0.0 0.0 0.00 0.00 0.00 93 1028.9
20181114033321 48 45 0.0 0.0 0.00 0.00 0.00 93 1028.6
20181114032830 48 45 0.0 0.0 0.00 0.00 0.00 93 1028.7
20181114032321 48 135 0.0 0.0 0.00 0.00 0.00 93 1028.7
20181114031320 48 22 0.0 0.0 0.00 0.00 0.00 93 1028.8
20181114030320 48 0 0.0 0.0 0.00 0.00 0.00 93 1028.7
20181114025820 48 0 0.0 0.0 0.00 0.00 0.00 93 1028.7
20181114025319 48 0 0.0 0.0 0.00 0.00 0.00 93 1028.7
20181114024841 48 0 0.0 0.0 0.00 0.00 0.00 93 1028.6
20181114024319 48 45 0.0 0.0 0.00 0.00 0.00 93 1028.6
20181114023823 47 292 0.0 0.0 0.00 0.00 0.00 93 1028.6
20181114023318 47 337 0.0 0.0 0.00 0.00 0.00 93 1028.6
20181114022317 47 337 0.0 0.0 0.00 0.00 0.00 93 1028.6
20181114021819 47 337 0.0 0.0 0.00 0.00 0.00 93 1028.6
20181114021317 47 337 0.0 0.0 0.00 0.00 0.00 93 1028.7
20181114020316 47 337 0.0 0.0 0.00 0.00 0.00 93 1028.6
20181114015316 47 45 0.0 0.0 0.00 0.00 0.00 93 1028.5
20181114014315 46 22 0.0 0.0 0.00 0.00 0.00 93 1028.7
20181114013818 46 0 0.0 0.0 0.00 0.00 0.00 93 1028.6
20181114013315 46 247 0.0 0.0 0.00 0.00 0.00 92 1028.7
20181114012820 46 225 0.0 1.0 0.00 0.00 0.00 92 1028.6
20181114012314 46 225 1.0 1.0 0.00 0.00 0.00 92 1028.6
20181114011313 46 0 0.0 0.0 0.00 0.00 0.00 93 1028.6
20181114010816 46 0 0.0 0.0 0.00 0.00 0.00 92 1028.5
20181114010313 46 0 0.0 0.0 0.00 0.00 0.00 93 1028.5
20181114005828 45 0 0.0 0.0 0.00 0.00 0.00 92 1028.4
20181114005312 45 0 0.0 0.0 0.00 0.00 0.00 93 1028.4
20181114004312 45 22 0.0 0.0 0.00 0.00 0.00 92 1028.2
20181114003812 45 22 0.0 0.0 0.00 0.00 0.00 92 1028.3
20181114003311 45 22 0.0 0.0 0.00 0.00 0.00 92 1028.4
20181114002815 45 0 0.0 0.0 0.00 0.00 0.00 92 1028.3
20181114002311 45 22 0.0 0.0 0.00 0.00 0.00 92 1028.2
20181114001811 45 22 0.0 0.0 0.00 0.00 0.00 92 1028.1
20181114001310 45 22 0.0 0.0 0.00 0.00 0.00 92 1028.1
20181114000812 45 337 0.0 0.0 0.00 0.00 0.00 92 1028.1
20181114000309 45 337 0.0 0.0 0.00 0.00 0.00 92 1028.0
20181113235810 46 292 0.0 0.0 0.00 0.00 0.00 92 1028.1
20181113235309 46 0 0.0 1.0 0.00 0.00 0.00 92 1028.1
20181113234308 46 135 0.0 0.0 0.00 0.00 0.00 92 1028.1
20181113233821 46 0 0.0 0.0 0.00 0.00 0.00 92 1028.0
20181113233308 46 0 0.0 0.0 0.00 0.00 0.00 92 1028.0
20181113232307 46 22 0.0 0.0 0.00 0.00 0.00 92 1027.9
20181113231307 46 22 0.0 0.0 0.00 0.00 0.00 91 1027.8
20181113230306 46 315 0.0 0.0 0.00 0.00 0.00 91 1027.8
20181113225847 47 157 0.0 0.0 0.00 0.00 0.00 91 1027.7
20181113225306 46 0 0.0 0.0 0.00 0.00 0.00 91 1027.8
20181113224305 47 337 0.0 0.0 0.00 0.00 0.00 91 1027.7
20181113223806 47 0 0.0 0.0 0.00 0.00 0.00 91 1027.8
20181113223305 47 157 0.0 0.0 0.00 0.00 0.00 91 1027.7
20181113222805 47 157 0.0 0.0 0.00 0.00 0.00 91 1027.7
20181113222304 47 157 0.0 0.0 0.00 0.00 0.00 91 1027.7
20181113221816 47 157 0.0 0.0 0.00 0.00 0.00 91 1027.5
20181113221304 47 0 0.0 0.0 0.00 0.00 0.00 91 1027.6
20181113220303 48 0 0.0 0.0 0.00 0.00 0.00 91 1027.5
20181113215302 48 22 0.0 0.0 0.00 0.00 0.00 91 1027.4
20181113214302 48 0 2.0 2.0 0.00 0.00 0.00 91 1027.1
20181113213301 48 337 0.0 0.0 0.00 0.00 0.00 90 1027.1